#timestamp,LO_Frequency,Hit,StdDev 
1521147615.1,286046997.0,P
1521147616.0,286046997.0,N
1521147635.8,286046999.0,N
1521147655.7,286046997.3,N
1521147675.5,286046995.0,Y
1521147695.4,286046998.8,P
1521147715.2,286047001.2,P
1521147735.0,286046997.0,N
1521147735.9,286046997.0,N
1521147755.8,286046998.0,N
1521147775.6,286046995.0,Y
1521147795.4,286046996.9,P
1521147815.3,286046998.6,N
1521147835.1,286046998.2,N
1521147855.9,286047001.0,N
1521147875.7,286047000.5,N
1521147895.5,286047000.3,N
1521147915.4,286047002.8,N
1521147935.2,286047000.2,N
1521147955.0,286047002.4,N
1521147955.9,286047002.4,N
1521147975.8,286047003.8,N
1521147995.6,286047001.8,N
1521148015.5,286047002.2,N
1521148035.3,286047001.6,N
1521148055.1,286047002.3,N
1521148075.9,286047004.1,N
1521148095.7,286047001.8,N
1521148115.5,286047004.4,N
1521148135.4,286047001.7,N
1521148155.2,286047001.8,N
1521148175.1,286047004.1,N
1521148176.0,286047004.1,N
1521148195.8,286047004.2,N
1521148215.6,286047002.1,N
1521148235.5,286046999.8,N
1521148255.3,286047002.6,N
1521148275.2,286047001.7,N
1521148295.9,286047002.4,N
1521148315.7,286047002.5,N
1521148335.6,286047001.8,N
1521148355.4,286047004.2,N
1521148375.3,286047005.8,Y
1521148395.1,286047001.7,P
1521148396.0,286047001.7,P
1521148415.8,286047003.1,P
1521148435.7,286047001.6,N
1521148455.5,286047001.3,N
1521148475.4,286047004.0,Y
1521148495.2,286046999.9,P
1521148515.0,286046998.5,N
1521148515.9,286046998.5,N
1521148535.8,286046996.9,N
1521148555.6,286046999.4,N
1521148575.4,286047001.2,N
1521148595.3,286046998.6,N
1521148615.1,286046998.5,N
1521148635.9,286046998.6,N
1521148655.7,286047001.0,N
1521148675.5,286047000.0,N
1521148695.4,286046996.5,N
1521148715.2,286046996.6,N
1521148735.0,286046997.8,N
1521148735.9,286046997.8,N
1521148755.8,286046997.5,N
1521148775.6,286046999.5,N
1521148795.5,286046996.9,N
1521148815.3,286046996.8,N
1521148835.1,286046996.6,N
1521148855.9,286046998.7,N
1521148875.7,286046998.2,N
1521148895.5,286046998.5,N
1521148915.4,286046996.5,N
1521148935.2,286046997.1,N
1521148955.1,286046995.3,Y
1521148956.0,286046995.3,P
1521148975.8,286046997.5,N
1521148995.6,286046997.2,N
1521149015.5,286046996.6,Y
1521149035.3,286047003.6,P
1521149055.2,286047004.3,N
1521149075.0,286047001.5,N
1521149075.9,286047001.5,N
1521149095.8,286047004.2,N
1521149115.6,286046999.9,N
1521149135.4,286047000.2,N
1521149155.3,286047001.5,N
1521149175.1,286047003.2,N
1521149195.8,286047003.2,N
1521149215.7,286047004.0,N
1521149235.5,286047003.9,N
1521149255.4,286047001.9,N
1521149275.2,286047002.4,N
1521149295.0,286047001.3,N
1521149295.9,286047001.3,N
1521149315.8,286047004.1,N
1521149335.6,286047003.3,N
1521149355.4,286047004.8,N
1521149375.3,286047005.8,Y
1521149395.1,286047001.5,P
1521149415.9,286047001.3,N
1521149435.7,286047001.3,N
1521149455.5,286046999.7,N
1521149475.4,286047000.1,N
1521149495.2,286047000.3,N
1521149515.0,286047011.9,Y
1521149515.9,286047001.0,P
1521149535.8,286046996.5,P
1521149555.6,286046999.2,N
1521149575.5,286046998.5,N
1521149595.3,286046998.1,N
1521149615.1,286046998.6,N
1521149635.9,286046998.4,N
1521149655.7,286046998.3,N
1521149675.5,286046999.4,N
1521149695.4,286047001.0,N
1521149715.2,286046998.3,N
1521149735.1,286046998.3,N
1521149736.0,286046998.3,N
1521149755.8,286046998.3,N
1521149775.6,286046999.9,N
1521149795.5,286047001.0,N
1521149815.3,286047001.1,N
1521149835.2,286046998.4,N
1521149855.9,286046998.6,N
1521149875.7,286046998.3,N
1521149895.6,286046998.4,N
1521149915.4,286046998.5,N
1521149935.2,286047000.9,N
1521149955.1,286047000.8,N
1521149956.0,286047000.8,N
1521149975.8,286047001.1,N
1521149995.7,286047001.2,N
1521150015.5,286046998.6,N
1521150035.3,286046998.4,N
1521150055.2,286046998.6,N
1521150075.0,286047001.2,N
1521150075.9,286047001.2,N
1521150095.8,286047000.6,N
1521150115.6,286047001.1,N
1521150135.4,286046999.1,N
1521150155.3,286046996.6,N
1521150175.1,286046999.2,N
1521150195.8,286046999.0,N
1521150215.7,286046999.6,N
1521150235.5,286046998.9,N
1521150255.4,286046999.1,N
1521150275.2,286046998.3,N
1521150295.0,286046996.6,N
1521150295.9,286046996.6,N
1521150315.8,286046999.1,N
1521150335.6,286046998.9,N
1521150355.4,286046998.4,N
1521150375.3,286047000.8,N
1521150395.1,286047000.7,N
1521150415.9,286047000.5,N
1521150435.7,286047000.6,N
1521150455.5,286047000.4,N
1521150475.4,286047000.7,N
1521150495.2,286046998.1,N
1521150515.0,286046998.7,N
1521150515.9,286046998.7,N
1521150535.8,286046997.1,N
1521150555.6,286046998.5,N
1521150575.5,286046998.3,N
1521150595.3,286046996.5,N
1521150615.1,286046999.5,N
1521150635.9,286047000.9,N
1521150655.7,286047000.4,N
1521150675.6,286046998.4,N
1521150695.4,286046999.3,N
1521150715.2,286046998.1,N
1521150735.1,286047000.1,N
1521150736.0,286047000.1,N
1521150755.8,286046998.2,N
1521150775.7,286046998.3,N
1521150795.5,286046998.5,N
1521150815.3,286046999.6,N
1521150835.2,286046997.3,N
1521150855.9,286046997.9,N
1521150875.7,286046997.5,N
1521150895.6,286046997.6,N
1521150915.4,286046999.2,N
1521150935.3,286047001.1,N
1521150955.1,286046999.2,N
1521150956.0,286046999.2,N
1521150975.8,286046997.3,N
1521150995.7,286046994.9,Y
1521151015.5,286046998.2,P
1521151035.3,286046998.5,P
1521151055.2,286047000.8,P
1521151075.0,286046996.6,Y
1521151075.9,286046996.6,P
1521151095.8,286046998.3,N
1521151115.6,286047000.3,N
1521151135.4,286047002.0,N
1521151155.3,286047002.5,N
1521151175.1,286047004.3,N
1521151195.9,286047001.9,N
